|
NORAD ID: 1586 Int'l Code: 1965-073C
Perigee: 1,352.9 km
Apogee: 1,646.8 km
Inclination: 56.1 °
Period: 115.8 minutes
Semi major axis: 7870 km
Launch date: September 18, 1965
Source: Commonwealth of Independent States (former USSR) (CIS)
Two Line Element Set (TLE):
1 01586U 65073C 13138.17728332 -.00000057 00000-0 24063-3 0 329
2 01586 056.0584 163.7547 0186704 285.6214 142.8854 12.43294773164765
Source:
NASA's NSSDC Master Catalog entry for COSMOS 88
|